Weather History for KLXL - March, 2014

Change the Weather History Date:

Wednesday, March 26, 2014

  Actual Average Record
Temperature  
Mean Temperature 20 °F -  
Max Temperature 35 °F 44 °F 77 °F (2007)
Min Temperature 5 °F 22 °F -20 °F (1965)
Degree Days  
Heating Degree Days 45    
Moisture  
Dew Point 12 °F    
Average Humidity 64    
Maximum Humidity 79    
Minimum Humidity 47    
Precipitation  
Precipitation 0.00 in - - ()
Sea Level Pressure  
Sea Level Pressure 29.84 in    
Wind  
Wind Speed 6 mph (SE)    
Max Wind Speed 18 mph    
Max Gust Speed 29 mph    
Visibility 10 miles    
Events      
Averages and records for this station are not official NWS values.
T = Trace of Precipitation, MM = Missing Value Source: NWS Daily Summary

Daily Weather History Graph

Daily Weather History Graph

Search for Another Location

Airport or City:

Trip Planner

Search our weather history database for the weather conditions in past years. The results will help you decide how hot, cold, wet, or windy it might be!

Date:

Astronomy

Mar. 26, 2014 Rise Set
Actual Time 7:08 AM CDT 7:38 PM CDT
Civil Twilight 6:38 AM CDT 8:07 PM CDT
Nautical Twilight 6:03 AM CDT 8:43 PM CDT
Astronomical Twilight 5:26 AM CDT 9:20 PM CDT
Moon 4:31 AM CDT (3/26) 3:04 PM CDT (3/26)
Length of Visible Light 13h 29m
Length of Day
12h 29m
Waning Crescent, 21% of the Moon is Illuminated
Mar 26
Waning Crescent
Mar 30
New
Apr 7
First Quarter
Apr 15
Full
Apr 22
Last Quarter

Hourly Weather History & Observations

Time (CDT) Temp. Windchill Dew Point Humidity Pressure Visibility Wind Dir Wind Speed Gust Speed Precip Events Conditions
12:05 AM 8.6 °F - 1.4 °F 73% 30.11 in 10.0 mi Calm Calm - N/A   Clear
12:25 AM 8.6 °F - 1.4 °F 73% 30.10 in 10.0 mi Calm Calm - N/A   Clear
12:45 AM 8.6 °F - 1.4 °F 73% 30.10 in 10.0 mi Calm Calm - N/A   Clear
1:05 AM 8.6 °F - 1.4 °F 73% 30.10 in 10.0 mi Calm Calm - N/A   Clear
1:25 AM 8.6 °F - 1.4 °F 73% 30.09 in 10.0 mi Calm Calm - N/A   Clear
1:45 AM 8.6 °F - 1.4 °F 73% 30.09 in 10.0 mi Calm Calm - N/A   Clear
2:05 AM 8.6 °F - 1.4 °F 73% 30.09 in 10.0 mi Calm Calm - N/A   Clear
2:25 AM 6.8 °F - 1.4 °F 79% 30.09 in 10.0 mi Calm Calm - N/A   Clear
2:45 AM 5.0 °F - -0.4 °F 78% 30.08 in 10.0 mi Calm Calm - N/A   Clear
3:05 AM 5.0 °F - -0.4 °F 78% 30.07 in 10.0 mi Calm Calm - N/A   Clear
3:25 AM 6.8 °F - 1.4 °F 79% 30.07 in 10.0 mi Calm Calm - N/A   Clear
3:45 AM 6.8 °F - 1.4 °F 79% 30.07 in 10.0 mi Calm Calm - N/A   Clear
4:05 AM 6.8 °F - -0.4 °F 72% 30.07 in 10.0 mi Calm Calm - N/A   Clear
4:25 AM 8.6 °F - 1.4 °F 73% 30.06 in 10.0 mi Calm Calm - N/A   Clear
4:45 AM 10.4 °F 0.8 °F 3.2 °F 73% 30.05 in 10.0 mi SE 5.8 mph - N/A   Clear
5:05 AM 8.6 °F -1.3 °F 1.4 °F 73% 30.05 in 10.0 mi SE 5.8 mph - N/A   Clear
5:25 AM 8.6 °F 0.1 °F 1.4 °F 73% 30.04 in 10.0 mi SE 4.6 mph - N/A   Clear
5:45 AM 8.6 °F -1.3 °F 1.4 °F 73% 30.03 in 10.0 mi SE 5.8 mph - N/A   Clear
6:05 AM 8.6 °F -1.3 °F 3.2 °F 79% 30.03 in 10.0 mi SE 5.8 mph - N/A   Clear
6:25 AM 10.4 °F 2.2 °F 3.2 °F 73% 30.02 in 10.0 mi SE 4.6 mph - N/A   Scattered Clouds
6:45 AM 10.4 °F 0.8 °F 3.2 °F 73% 30.01 in 10.0 mi SE 5.8 mph - N/A   Overcast
7:05 AM 10.4 °F -1.5 °F 5.0 °F 79% 30.01 in 10.0 mi SE 8.1 mph - N/A   Overcast
7:25 AM 12.2 °F 1.7 °F 5.0 °F 73% 30.01 in 10.0 mi SE 6.9 mph - N/A   Overcast
7:45 AM 12.2 °F 1.7 °F 5.0 °F 73% 29.99 in 10.0 mi SE 6.9 mph - N/A   Scattered Clouds
8:05 AM 12.2 °F 1.7 °F 6.8 °F 79% 30.00 in 10.0 mi SE 6.9 mph - N/A   Scattered Clouds
8:25 AM 14.0 °F 3.9 °F 6.8 °F 73% 29.99 in 10.0 mi SE 6.9 mph - N/A   Mostly Cloudy
8:45 AM 15.8 °F 6.1 °F 8.6 °F 73% 29.98 in 10.0 mi SE 6.9 mph - N/A   Overcast
9:05 AM 15.8 °F 5.1 °F 8.6 °F 73% 29.97 in 10.0 mi SE 8.1 mph - N/A   Mostly Cloudy
9:25 AM 17.6 °F 7.3 °F 8.6 °F 68% 29.95 in 10.0 mi SE 8.1 mph - N/A   Mostly Cloudy
9:45 AM 17.6 °F 7.3 °F 10.4 °F 73% 29.94 in 10.0 mi SE 8.1 mph - N/A   Mostly Cloudy
10:05 AM 19.4 °F 7.9 °F 10.4 °F 68% 29.94 in 10.0 mi SE 10.4 mph - N/A   Mostly Cloudy
10:25 AM 21.2 °F 9.5 °F 10.4 °F 63% 29.92 in 10.0 mi SE 11.5 mph - N/A   Scattered Clouds
10:45 AM 23.0 °F 10.6 °F 10.4 °F 59% 29.90 in 10.0 mi ESE 13.8 mph - N/A   Clear
11:05 AM 23.0 °F 11.7 °F 12.2 °F 63% 29.89 in 10.0 mi ESE 11.5 mph - N/A   Scattered Clouds
11:25 AM 24.8 °F 13.4 °F 12.2 °F 59% 29.87 in 10.0 mi ESE 12.7 mph 19.6 mph N/A   Mostly Cloudy
11:45 AM 26.6 °F 15.7 °F 12.2 °F 55% 29.86 in 10.0 mi SE 12.7 mph 20.7 mph N/A   Scattered Clouds
12:05 PM 26.6 °F 14.3 °F 12.2 °F 55% 29.84 in 10.0 mi SE 16.1 mph - N/A   Clear
12:25 PM 28.4 °F 15.8 °F 12.2 °F 51% 29.82 in 10.0 mi SE 18.4 mph - N/A   Clear
12:45 PM 30.2 °F 19.3 °F 12.2 °F 47% 29.79 in 10.0 mi SE 15.0 mph 24.2 mph N/A   Clear
1:05 PM 30.2 °F 18.9 °F 12.2 °F 47% 29.77 in 10.0 mi SE 16.1 mph 27.6 mph N/A   Clear
1:25 PM 32.0 °F 21.6 °F 14.0 °F 48% 29.77 in 10.0 mi SE 15.0 mph 24.2 mph N/A   Clear
1:45 PM 32.0 °F 22.1 °F 15.8 °F 51% 29.77 in 10.0 mi SE 13.8 mph 21.9 mph N/A   Clear
2:05 PM 33.8 °F 24.8 °F 15.8 °F 48% 29.76 in 10.0 mi SE 12.7 mph 20.7 mph N/A   Clear
2:25 PM 33.8 °F 23.2 °F 15.8 °F 48% 29.74 in 10.0 mi SE 17.3 mph 26.5 mph N/A   Clear
2:45 PM 33.8 °F 22.8 °F 15.8 °F 48% 29.73 in 10.0 mi SSE 18.4 mph 28.8 mph N/A   Clear
3:05 PM 35.6 °F 25.2 °F 17.6 °F 48% 29.71 in 10.0 mi SE 18.4 mph 27.6 mph N/A   Clear
3:25 PM 35.6 °F 25.5 °F 17.6 °F 48% 29.70 in 10.0 mi SE 17.3 mph 25.3 mph N/A   Clear
3:45 PM 35.6 °F 25.2 °F 17.6 °F 48% 29.68 in 10.0 mi SE 18.4 mph 24.2 mph N/A   Clear
4:05 PM 35.6 °F 25.5 °F 19.4 °F 52% 29.67 in 10.0 mi SE 17.3 mph 26.5 mph N/A   Clear
4:25 PM 35.6 °F 27.5 °F 19.4 °F 52% 29.67 in 10.0 mi SE 11.5 mph 25.3 mph N/A   Clear
4:45 PM 35.6 °F 26.6 °F 19.4 °F 52% 29.65 in 10.0 mi SE 13.8 mph 25.3 mph N/A   Clear
5:05 PM 35.6 °F 26.2 °F 21.2 °F 56% 29.65 in 10.0 mi ESE 15.0 mph 21.9 mph N/A   Clear
5:25 PM 35.6 °F 26.2 °F 21.2 °F 56% 29.65 in 10.0 mi SE 15.0 mph 20.7 mph N/A   Clear
5:45 PM 35.6 °F 25.5 °F 21.2 °F 56% 29.64 in 10.0 mi SE 17.3 mph 24.2 mph N/A   Clear
6:05 PM 35.6 °F 25.5 °F 23.0 °F 60% 29.63 in 10.0 mi ESE 17.3 mph 23.0 mph N/A   Clear
6:25 PM 35.6 °F 27.1 °F 23.0 °F 60% 29.62 in 10.0 mi ESE 12.7 mph 21.9 mph N/A   Clear
6:45 PM 35.6 °F 27.5 °F 23.0 °F 60% 29.61 in 10.0 mi ESE 11.5 mph 17.3 mph N/A   Clear
7:05 PM 35.6 °F 28.6 °F 23.0 °F 60% 29.61 in 10.0 mi ESE 9.2 mph 19.6 mph N/A   Clear
7:25 PM 35.6 °F 28.0 °F 23.0 °F 60% 29.60 in 10.0 mi ESE 10.4 mph 16.1 mph N/A   Clear
7:45 PM 33.8 °F 25.8 °F 23.0 °F 65% 29.59 in 10.0 mi ESE 10.4 mph - N/A   Clear
8:05 PM 33.8 °F 25.3 °F 23.0 °F 65% 29.58 in 10.0 mi ESE 11.5 mph 19.6 mph N/A   Clear
8:25 PM 33.8 °F 25.3 °F 23.0 °F 65% 29.57 in 10.0 mi ESE 11.5 mph 19.6 mph N/A   Clear
8:45 PM 33.8 °F 25.3 °F 23.0 °F 65% 29.57 in 10.0 mi ESE 11.5 mph 17.3 mph N/A   Clear
9:25 PM 33.8 °F 25.8 °F 23.0 °F 65% 29.57 in 10.0 mi East 10.4 mph 16.1 mph N/A   Mostly Cloudy
9:45 PM 33.8 °F 25.8 °F 23.0 °F 65% 29.56 in 10.0 mi ESE 10.4 mph - N/A   Overcast
10:05 PM 33.8 °F 26.4 °F 23.0 °F 65% 29.55 in 10.0 mi ESE 9.2 mph 17.3 mph N/A   Overcast
10:25 PM 35.6 °F 27.1 °F 23.0 °F 60% 29.54 in 10.0 mi ESE 12.7 mph 19.6 mph N/A   Overcast
10:45 PM 35.6 °F 28.0 °F 23.0 °F 60% 29.52 in 10.0 mi ESE 10.4 mph - N/A   Mostly Cloudy
11:05 PM 35.6 °F 29.9 °F 23.0 °F 60% 29.53 in 10.0 mi ESE 6.9 mph - N/A   Mostly Cloudy
11:25 PM 35.6 °F 28.0 °F 23.0 °F 60% 29.52 in 10.0 mi ESE 10.4 mph - N/A   Mostly Cloudy
11:45 PM 35.6 °F 29.9 °F 23.0 °F 60% 29.52 in 10.0 mi ESE 6.9 mph - N/A   Overcast